Hourly Data Report for October 04, 2015

All times are specified in Local Standard Time (LST). Add 1 hour to adjust for Daylight Saving Time where and when it is observed.

BAKER LAKE A
NUNAVUT

64°17'56.000" N
96°04'40.000" W
18.60 m
2300503
71926
YBK

Download Data

Hourly Data (October 2015)
Hourly Data Report for October 4, 2015
Temp Definition
°C
Dew Point Temp Definition
°C
Rel Hum Definition
%
Wind Dir Definition
10's deg

Wind Spd Definition
km/h
Visibility Definition
km
Stn Press Definition
kPa
Hmdx Definition


Wind Chill Definition


Weather Definition


TIME
00:00 Legend Double Dagger -3.5 -6.5 80 25 6 24.1 103.07   -6 Mainly Clear
01:00 Legend Double Dagger -4.7 -6.9 85 24 8 24.1 103.02   -8 LegendNANA
02:00 Legend Double Dagger -5.1 -6.9 87 25 12 24.1 103.03   -10 LegendNANA
03:00 Legend Double Dagger -5.2 -6.7 89 23 14 24.1 102.99   -11 Mainly Clear
04:00 Legend Double Dagger -5.2 -6.4 91 23 13 24.1 102.96   -10 LegendNANA
05:00 Legend Double Dagger -4.7 -6.1 90 22 13 24.1 102.92   -10 LegendNANA
06:00 Legend Double Dagger -4.4 -5.8 90 23 10 32.2 102.88   -9 Mostly Cloudy
07:00 Legend Double Dagger -3.8 -5.2 90 24 16 32.2 102.87   -9 LegendNANA
08:00 Legend Double Dagger -2.5 -4.4 87 23 13 32.2 102.84   -7 LegendNANA
09:00 Legend Double Dagger -1.9 -4.4 83 23 15 32.2 102.80   -7 Mostly Cloudy
10:00 Legend Double Dagger -1.5 -4.5 80 23 18 32.2 102.73   -7 LegendNANA
11:00 Legend Double Dagger -0.7 -4.1 78 23 17 32.2 102.68   -6 LegendNANA
12:00 Legend Double Dagger -0.4 -3.8 78 21 19 32.2 102.62   -6 Mostly Cloudy
13:00 Legend Double Dagger -0.4 -4.1 76 21 19 32.2 102.60   -6 LegendNANA
14:00 Legend Double Dagger -0.6 -4.5 75 21 15 32.2 102.53   -5 LegendNANA
15:00 Legend Double Dagger -0.6 -5.4 70 23 17 32.2 102.47   -6 Cloudy
16:00 Legend Double Dagger -0.7 -5.1 72 22 10 32.2 102.43   -4 LegendNANA
17:00 Legend Double Dagger -1.0 -5.2 73 19 12 32.2 102.39   -5 LegendNANA
18:00 Legend Double Dagger -1.1 -4.8 76 21 11 32.2 102.35   -5 Cloudy
19:00 Legend Double Dagger -1.3 -5.7 72 21 13 24.1 102.31   -6 LegendNANA
20:00 Legend Double Dagger -1.5 -5.5 74 19 14 24.1 102.27   -6 LegendNANA
21:00 Legend Double Dagger -1.8 -5.7 75 23 10 24.1 102.21   -5 Cloudy
22:00 Legend Double Dagger -1.9 -5.9 74 19 17 24.1 102.16   -7 LegendNANA
23:00 Legend Double Dagger -2.3 -5.1 81 20 17 24.1 102.14   -8 LegendNANA

Notes on Data Quality.

Legend

  • E = Estimated
  • M = Missing
  • NA = Not Available
  • ‡ = Partner data that is not subject to review by the National Climate Archives
Date modified: